Regional Weather Roundup
Issued by NWS

Home | Current Version | Previous Version | Text Only | Print | Product List | Glossary On
Versions: 1 2 3 4 5 6 7 8 9 10 11 12 13 14 15 16 17 18 19 20 21 22 23 24 25 26 27 28 29 30 31 32 33 34 35 36 37 38 39 40 41 42 43 44 45 46 47 48 49 50
000
ASUS44 KFWD 260615
RWRTX
NORTH TEXAS HOURLY WEATHER ROUNDUP
NATIONAL WEATHER SERVICE FORT WORTH TX
1200 AM CST FRI DEC 26 2014

NOTE: "FAIR" INDICATES FEW OR NO CLOUDS BELOW 12,000 FEET WITH NO
SIGNIFICANT WEATHER AND/OR OBSTRUCTIONS TO VISIBILITY.

TXZ118-119-260700-
DALLAS/FORT WORTH METROPLEX

CITY           SKY/WX    TMP DP  RH WIND       PRES   REMARKS
DFW AIRPORT    MOCLDY    52  43  71 S14       29.95R
6HR MIN TEMP:  52; 6HR MAX TEMP:  56;

DALLAS LOVE    MOCLDY    53  43  68 S17       29.96S
6HR MIN TEMP:  52; 6HR MAX TEMP:  57;

FTW MEACHAM    MOCLDY    54  43  66 S18G24    29.93S
6HR MIN TEMP:  51; 6HR MAX TEMP:  58;

DAL-EXECUTIVE  PTCLDY    51  42  71 S13       29.95R
6HR MIN TEMP:  51; 6HR MAX TEMP:  59;

FTW-ALLIANCE   MOCLDY    51  42  71 S13G20    29.93R
6HR MIN TEMP:  50; 6HR MAX TEMP:  55;

FTW-SPINKS     PTCLDY    52  44  73 S14       29.95F
6HR MIN TEMP:  51; 6HR MAX TEMP:  56;

ARLINGTON      PTCLDY    52  42  69 S10G21    29.95S
6HR MIN TEMP:  52; 6HR MAX TEMP:  58;

GRAND PRAIRIE  PTCLDY    52  45  76 S12G18    29.97S
6HR MIN TEMP:  52; 6HR MAX TEMP:  58;

ADDISON        MOCLDY    53  43  68 S7        29.98R
6HR MIN TEMP:  53; 6HR MAX TEMP:  58;

MESQUITE       CLOUDY    51  42  70 SE8       29.98R
6HR MIN TEMP:  50; 6HR MAX TEMP:  56;

LANCASTER      CLOUDY    51  41  69 S7        29.99R
6HR MIN TEMP:  47; 6HR MAX TEMP:  57;

$$

TXZ091>094-102>105-117-120-121-131>134-260700-
NORTH CENTRAL TEXAS

CITY           SKY/WX    TMP DP  RH WIND       PRES   REMARKS
SHRMAN/DENISON MOCLDY    50  42  74 S14       29.95S
6HR MIN TEMP:  50; 6HR MAX TEMP:  55;

GAINESVILLE    MOCLDY    51  40  66 S16G22    29.94S
6HR MIN TEMP:  48; 6HR MAX TEMP:  53;

BOWIE          MOCLDY    49  34  55 SE15G24   29.88F
6HR MIN TEMP:  49; 6HR MAX TEMP:  56;

BRIDGEPORT     MOCLDY    49  35  59 S8        29.92F
6HR MIN TEMP:  48; 6HR MAX TEMP:  57;

DECATUR        MOCLDY    50  38  64 S15G22    29.92S
6HR MIN TEMP:  50; 6HR MAX TEMP:  55;

DENTON         MOCLDY    52  41  66 S16       29.95R
6HR MIN TEMP:  52; 6HR MAX TEMP:  56;

MCKINNEY       PTCLDY    51  41  68 S13       29.96R
6HR MIN TEMP:  45; 6HR MAX TEMP:  55;

GREENVILLE     PTCLDY    50  41  71 S10       29.99S
ROCKWALL       MOCLDY    50  42  72 S9        29.97R
6HR MIN TEMP:  49; 6HR MAX TEMP:  56;

TERRELL        MOCLDY    54  43  66 S16G25    29.99S
6HR MIN TEMP:  49; 6HR MAX TEMP:  57;

WAXAHACHIE     CLOUDY    51  45  80 SE10      29.98S
6HR MIN TEMP:  48; 6HR MAX TEMP:  56;

CLEBURNE       PTCLDY    50  46  87 S14       29.96S
GRANBURY       MOCLDY    49  38  66 E5        29.95S
6HR MIN TEMP:  49; 6HR MAX TEMP:  59;

$$

TXZ083>090-098>101-113>116-127>130-139>142-154-155-260700-
WESTERN NORTH TEXAS

CITY           SKY/WX    TMP DP  RH WIND       PRES   REMARKS
WICHITA FALLS  CLOUDY    50  30  46 S16       29.83F
6HR MIN TEMP:  50; 6HR MAX TEMP:  55;

WF-KICKAPOO    CLOUDY    50  30  46 S8        29.85F
6HR MIN TEMP:  50; 6HR MAX TEMP:  55;

VERNON         CLOUDY    50  24  37 S8        29.81S
6HR MIN TEMP:  49; 6HR MAX TEMP:  57;

ABILENE        MOCLDY    51  29  42 S20       29.84R
6HR MIN TEMP:  51; 6HR MAX TEMP:  58;

ABILENE-DYESS  MOCLDY    51  31  45 S23       29.80F
6HR MIN TEMP:  51; 6HR MAX TEMP:  57;

BRECKENRIDGE   CLOUDY    54  30  40 S18G28    29.85F
6HR MIN TEMP:  53; 6HR MAX TEMP:  60;

GRAHAM         CLOUDY    53  33  47 S12G20    29.86S
6HR MIN TEMP:  52; 6HR MAX TEMP:  58;

MINERAL WELLS  CLOUDY    50  33  52 SE13      29.90S
6HR MIN TEMP:  49; 6HR MAX TEMP:  57;

STEPHENVILLE   MOCLDY    51  38  63 S13G18    29.93S
6HR MIN TEMP:  49; 6HR MAX TEMP:  56;

COMANCHE       CLOUDY    50  39  65 S16G23    29.90F
6HR MIN TEMP:  50; 6HR MAX TEMP:  55;

BROWNWOOD      CLOUDY    48  32  53 SE10      29.90F
COLEMAN        MOCLDY    46  33  61 S7        29.89S
6HR MIN TEMP:  46; 6HR MAX TEMP:  57;

BRADY          CLEAR     52  39  62 S10       29.88F
$$

TXZ143>147-156>162-174-175-260700-
CENTRAL TEXAS

CITY           SKY/WX    TMP DP  RH WIND       PRES   REMARKS
WACO           MOCLDY    52  45  77 S14       29.97R
6HR MIN TEMP:  51; 6HR MAX TEMP:  57;

WACO-MCGREGOR  PTCLDY    52  39  62 S15       29.97S
6HR MIN TEMP:  48; 6HR MAX TEMP:  55;

HILLSBORO      MOCLDY    53  44  71 S15       29.97R
6HR MIN TEMP:  52; 6HR MAX TEMP:  56;

CORSICANA      CLOUDY    55  45  68 S13       30.00S
6HR MIN TEMP:  50; 6HR MAX TEMP:  58;

MEXIA          CLOUDY    53  45  75 S13G18    29.98F
6HR MIN TEMP:  51; 6HR MAX TEMP:  57;

HEARNE         MOCLDY    54  47  79 SE13G18   30.00S
6HR MIN TEMP:  52; 6HR MAX TEMP:  58;

CAMERON        CLOUDY    56  48  74 S12G17    29.98S
6HR MIN TEMP:  54; 6HR MAX TEMP:  59;

TEMPLE         PTCLDY    50  43  76 S13       29.96F
6HR MIN TEMP:  50; 6HR MAX TEMP:  57;

KILLEEN        CLEAR     43  41  92 S6        29.96S WCI  39
6HR MIN TEMP:  43; 6HR MAX TEMP:  56;

KILLEEN-SKYLRK CLEAR     50  39  66 SE9       29.95F
6HR MIN TEMP:  50; 6HR MAX TEMP:  57;

FORT HOOD      CLEAR     49  44  85 SE10      29.95F
6HR MIN TEMP:  49; 6HR MAX TEMP:  57;

GATESVILLE     CLEAR     50  43  76 S8        29.98S
HAMILTON       MOCLDY    51  41  69 S15G24    29.93S
6HR MIN TEMP:  51; 6HR MAX TEMP:  55;

$$

TXZ095>097-106>112-122>126-135>138-148>153-164>167-260700-
EAST TEXAS

CITY           SKY/WX    TMP DP  RH WIND       PRES   REMARKS
PARIS          PTCLDY    43  36  75 SE13      30.01S WCI  36
6HR MIN TEMP:  43; 6HR MAX TEMP:  52;

SULPHUR SPRNGS CLEAR     52  44  73 S12       30.02S
6HR MIN TEMP:  51; 6HR MAX TEMP:  57;

MOUNT PLEASANT PTCLDY    46  40  78 SE7       30.05S
6HR MIN TEMP:  46; 6HR MAX TEMP:  53;

MINEOLA        CLEAR     52  45  76 SE5       30.03R
TYLER          PTCLDY    51  44  77 S8        30.02R
6HR MIN TEMP:  51; 6HR MAX TEMP:  57;

LONGVIEW       MOCLDY    49  43  80 SE8       30.03S
6HR MIN TEMP:  49; 6HR MAX TEMP:  53;

MARSHALL       MOCLDY    52  47  83 S8        30.07S
6HR MIN TEMP:  51; 6HR MAX TEMP:  56;

ATHENS         CLOUDY    52  45  76 S9        30.01S
PALESTINE      MOCLDY    52  47  82 SE6       30.03R
JACKSONVILLE   MOCLDY    50  45  84 S15G24    30.03F
HENDERSON      MOCLDY    50  45  83 S8        30.04S
6HR MIN TEMP:  49; 6HR MAX TEMP:  53;

NACOGDOCHES      N/A    N/A N/A N/A MISG        N/A
LUFKIN         PTCLDY    49  45  86 SE8       30.06F
6HR MIN TEMP:  48; 6HR MAX TEMP:  57;

$$

SUPPLEMENTAL OBSERVATIONS (CENTRAL)

CITY           SKY/WX    TMP DP  RH WIND       PRES   REMARKS
LAKE TEXOMA      N/A     52  39  62 S9          N/A
CADDO GRASSLND   N/A     46  37  71 S7          N/A
PAT MAYSE LAKE   N/A     48  39  71 E12         N/A
GREENVILLE       N/A     52  43  71 S12         N/A
CEDAR HILL       N/A     54  45  71 S10G22      N/A
ATHENS           N/A     54  45  71 S13         N/A
LAKE LIMESTONE   N/A     54  45  71 S10G18      N/A
MCGREGOR         N/A     50  45  81 S12G21      N/A
$$

SUPPLEMENTAL OBSERVATIONS (WEST)

CITY           SKY/WX    TMP DP  RH WIND       PRES   REMARKS
MILLERS CREEK    N/A     50  28  43 S12         N/A


USA.gov is the U.S. government's official web portal to all federal, state and local government web resources and services.